Simultaneous Nadir Overpasses (SNOs) Predictions

Prediction of SNOs between AQUA and METOP-B Satellite Orbit:

Table of predicted SNOs for the next 14.0 days since TLE Epoch: 7/26/2019
Index Date (AQUA) Time (AQUA) Lat,Lon (AQUA) SZA (AQUA ) Date (METOP-B) Time (METOP-B) Lat,Lon (METOP-B) SZA (METOP-B ) Distance(km) Time Diff (sec)
1 07/29/2019 08:36:38 73.78, 45.18 55.07 07/29/2019 08:35:25 73.75, 45.04 55.06 5.41 73
2 07/29/2019 09:26:06 -73.89,-147.42 124.81 07/29/2019 09:26:04 -73.88,-147.34 124.83 2.93 2
3 07/29/2019 10:15:34 73.93, 20.12 55.25 07/29/2019 10:16:43 73.93, 20.12 55.23 0.31 69
4 08/01/2019 04:10:52 73.79, 111.61 55.75 08/01/2019 04:09:45 73.81, 111.59 55.79 3.25 67
5 08/01/2019 05:00:20 -73.90, -80.99 124.13 08/01/2019 05:00:25 -73.89, -80.90 124.13 2.79 5
6 08/01/2019 05:49:50 74.04, 86.32 56.05 08/01/2019 05:51:02 74.04, 86.80 56.02 14.76 72
7 08/03/2019 23:45:07 73.79, 178.03 56.48 08/03/2019 23:44:07 73.82, 178.02 56.52 3.37 60
8 08/04/2019 00:34:35 -73.90, -14.57 123.40 08/04/2019 00:34:47 -73.90, -14.47 123.40 3.30 12
9 08/04/2019 01:24:10 74.31, 152.14 57.06 08/04/2019 01:25:19 74.30, 153.85 56.97 51.48 69
10 08/06/2019 19:19:22 73.81,-115.56 57.25 08/06/2019 19:18:29 73.83,-115.55 57.29 2.88 53
11 08/06/2019 20:08:49 -73.87, 51.95 122.68 08/06/2019 20:09:10 -73.86, 51.85 122.68 3.11 21
12 08/06/2019 20:58:30 74.58,-142.07 58.11 08/06/2019 20:59:35 74.60,-138.96 58.00 92.08 65
13 08/09/2019 14:53:36 73.82, -49.16 58.06 08/09/2019 14:52:50 73.84, -49.13 58.08 1.99 46
14 08/09/2019 15:43:03 -73.88, 118.35 121.87 08/09/2019 15:43:31 -73.87, 118.28 121.88 2.32 28




NCC Satellite Simultaneous Nadir Overpasses (SNOs) Prediction Service
